Location: ???????????
(55.5758°N, 38.4970°E)
Time: 18:10:17
(UTC+00:00)

Cosmos 2360 Rocket - Pass Details

Date: 15 November 2025
Orbit: 833 x 843 km, 71.0° (Epoch: 14 December)

Event Time Altitude Azimuth Distance (km) Brightness Sun altitude
Exits shadow 00:29:18 24° 26° (NNE) 1,679 4.1 -37.5°
Drops below altitude 10° 00:31:30 10° 32° (NNE) 2,473 5.2 -37.2°
Sets 00:33:59 0° 35° (NE) 3,410 6.1 -36.9°
